, NV

(GMT )
Eureka Airport

Weather History for K05U - November, 2012

Change the Weather History Date:

Thursday, November 1, 2012

  Actual Average Record
Temperature  
Mean Temperature 48 °F -  
Max Temperature 60 °F - - ()
Min Temperature 37 °F - - ()
Degree Days  
Heating Degree Days 16    
Moisture  
Dew Point -    
Average Humidity    
Maximum Humidity    
Minimum Humidity    
Precipitation  
Precipitation 0.00 in - - ()
Sea Level Pressure  
Sea Level Pressure 30.09 in    
Wind  
Wind Speed 5 mph ()    
Max Wind Speed 9 mph    
Max Gust Speed -    
Visibility 10.0 miles    
Events      
T = Trace of Precipitation, MM = Missing Value Source: Averaged Metar Reports

Daily Weather History Graph

Daily Weather History Graph

Search for Another Location

Airport or City:

Trip Planner

Search our weather history database for the weather conditions in past years. The results will help you decide how hot, cold, wet, or windy it might be!

Date:

Astronomy

Nov. 01, 2012 Rise Set
Actual Time 7:13 AM PDT 5:41 PM PDT
Civil Twilight 6:45 AM PDT 6:09 PM PDT
Nautical Twilight 6:13 AM PDT 6:41 PM PDT
Astronomical Twilight 5:41 AM PDT 7:12 PM PDT
Moon 7:42 PM PDT (11/1) 9:48 AM PDT (11/1)
Length of Visible Light 11h 24m
Length of Day
10h 28m
Waning Gibbous, 92% of the Moon is Illuminated
Nov 1
Waning Gibbous
Nov 6
Last Quarter
Nov 13
New
Nov 20
First Quarter
Nov 28
Full

Hourly Weather History & Observations

Time (PDT) Temp. Windchill Dew Point Humidity Pressure Visibility Wind Dir Wind Speed Gust Speed Precip Events Conditions
12:00 AM 50.0 °F - - N/A% 30.08 in 10.0 mi SSW 8.1 mph - N/A   Clear
12:20 AM 50.0 °F - - N/A% 30.08 in 10.0 mi SSW 8.1 mph - N/A   Clear
12:40 AM 50.0 °F - - N/A% 30.08 in 10.0 mi South 9.2 mph - N/A   Clear
1:00 AM 48.2 °F - - N/A% 30.07 in 10.0 mi South 8.1 mph - N/A   Clear
1:20 AM 48.2 °F - - N/A% 30.07 in 10.0 mi South 6.9 mph - N/A   Clear
1:40 AM 48.2 °F - - N/A% 30.06 in 10.0 mi South 9.2 mph - N/A   Clear
2:00 AM 48.2 °F - - N/A% 30.07 in 10.0 mi South 8.1 mph - N/A   Clear
2:20 AM 50.0 °F - - N/A% 30.06 in 10.0 mi SSW 9.2 mph - N/A   Clear
2:40 AM 50.0 °F - - N/A% 30.07 in 10.0 mi SW 9.2 mph - N/A   Clear
3:20 AM 50.0 °F - - N/A% 30.07 in 10.0 mi WSW 8.1 mph - N/A   Mostly Cloudy
3:40 AM 50.0 °F - - N/A% 30.07 in 10.0 mi SSW 9.2 mph - N/A   Mostly Cloudy
4:20 AM 50.0 °F - - N/A% 30.05 in 10.0 mi South 8.1 mph - N/A   Overcast
4:40 AM 50.0 °F - - N/A% 30.06 in 10.0 mi SW 6.9 mph - N/A   Overcast
5:20 AM 46.4 °F 45.2 °F - N/A% 30.06 in 10.0 mi NNE 3.5 mph - N/A   Mostly Cloudy
6:00 AM 44.6 °F - - N/A% 30.06 in 10.0 mi Calm Calm - N/A   Mostly Cloudy
6:15 AM 42.8 °F - - N/A% 30.05 in 10.0 mi Calm Calm - N/A   Mostly Cloudy
6:40 AM 42.8 °F - - N/A% 30.06 in 10.0 mi Calm Calm - N/A   Overcast
7:00 AM 44.6 °F - - N/A% 30.06 in 10.0 mi Calm Calm - N/A   Mostly Cloudy
7:20 AM 42.8 °F - - N/A% 30.06 in 10.0 mi Calm Calm - N/A   Mostly Cloudy
7:40 AM 42.8 °F - - N/A% 30.07 in 10.0 mi Calm Calm - N/A   Overcast
8:00 AM 44.6 °F - - N/A% 30.07 in 10.0 mi Calm Calm - N/A   Scattered Clouds
8:20 AM 44.6 °F - - N/A% 30.08 in 10.0 mi Calm Calm - N/A   Mostly Cloudy
8:40 AM 46.4 °F 45.2 °F - N/A% 30.08 in 10.0 mi SSE 3.5 mph - N/A   Overcast
9:00 AM 48.2 °F - - N/A% 30.09 in 10.0 mi Calm Calm - N/A   Overcast
9:20 AM 50.0 °F - - N/A% 30.09 in 10.0 mi Calm Calm - N/A   Overcast
9:40 AM 50.0 °F - - N/A% 30.09 in 10.0 mi Calm Calm - N/A   Mostly Cloudy
10:00 AM 53.6 °F - - N/A% 30.10 in 10.0 mi Calm Calm - N/A   Scattered Clouds
10:20 AM 55.4 °F - - N/A% 30.09 in 10.0 mi WNW 3.5 mph - N/A   Clear
10:40 AM 55.4 °F - - N/A% 30.10 in 10.0 mi SW 5.8 mph - N/A   Clear
11:00 AM 57.2 °F - - N/A% 30.10 in 10.0 mi ENE 4.6 mph - N/A   Clear
11:20 AM 57.2 °F - - N/A% 30.10 in 10.0 mi Calm Calm - N/A   Clear
11:40 AM 57.2 °F - - N/A% 30.10 in 10.0 mi ESE 3.5 mph - N/A   Clear
12:00 PM 59.0 °F - - N/A% 30.09 in 10.0 mi NE 4.6 mph - N/A   Clear
12:20 PM 59.0 °F - - N/A% 30.09 in 10.0 mi North 5.8 mph - N/A   Clear
12:40 PM 59.0 °F - - N/A% 30.09 in 10.0 mi NNE 5.8 mph - N/A   Clear
1:00 PM 59.0 °F - - N/A% 30.08 in 10.0 mi ENE 6.9 mph - N/A   Clear
1:20 PM 59.0 °F - - N/A% 30.07 in 10.0 mi NNE 8.1 mph - N/A   Clear
1:40 PM 60.8 °F - - N/A% 30.07 in 10.0 mi North 9.2 mph - N/A   Clear
2:00 PM 59.0 °F - - N/A% 30.06 in 10.0 mi NE 5.8 mph - N/A   Clear
2:20 PM 59.0 °F - - N/A% 30.07 in 10.0 mi NNE 6.9 mph - N/A   Clear
2:40 PM 59.0 °F - - N/A% 30.07 in 10.0 mi North 5.8 mph - N/A   Clear
3:00 PM 59.0 °F - - N/A% 30.07 in 10.0 mi North 8.1 mph - N/A   Clear
3:15 PM 59.0 °F - - N/A% 30.07 in 10.0 mi NNE 5.8 mph - N/A   Clear
3:40 PM 57.2 °F - - N/A% 30.07 in 10.0 mi North 8.1 mph - N/A   Clear
4:00 PM 57.2 °F - - N/A% 30.08 in 10.0 mi North 9.2 mph - N/A   Clear
4:20 PM 57.2 °F - - N/A% 30.08 in 10.0 mi North 8.1 mph - N/A   Clear
4:40 PM 55.4 °F - - N/A% 30.08 in 10.0 mi North 8.1 mph - N/A   Clear
5:00 PM 55.4 °F - - N/A% 30.09 in 10.0 mi NNW 8.1 mph - N/A   Clear
5:20 PM 53.6 °F - - N/A% 30.09 in 10.0 mi NNE 5.8 mph - N/A   Clear
5:40 PM 51.8 °F - - N/A% 30.09 in 10.0 mi NNE 3.5 mph - N/A   Clear
6:00 PM 50.0 °F - - N/A% 30.09 in 10.0 mi NE 5.8 mph - N/A   Clear
6:20 PM 50.0 °F - - N/A% 30.10 in 10.0 mi NNE 6.9 mph - N/A   Clear
7:00 PM 46.4 °F 43.5 °F - N/A% 30.11 in 10.0 mi NW 5.8 mph - N/A   Clear
7:20 PM 46.4 °F - - N/A% 30.11 in 10.0 mi Calm Calm - N/A   Clear
7:40 PM 46.4 °F - - N/A% 30.11 in 10.0 mi Calm Calm - N/A   Partly Cloudy
8:00 PM 44.6 °F 43.1 °F - N/A% 30.12 in 10.0 mi ESE 3.5 mph - N/A   Mostly Cloudy
8:20 PM 44.6 °F 43.1 °F - N/A% 30.12 in 10.0 mi South 3.5 mph - N/A   Mostly Cloudy
8:40 PM 44.6 °F 43.1 °F - N/A% 30.13 in 10.0 mi South 3.5 mph - N/A   Mostly Cloudy
9:00 PM 42.8 °F - - N/A% 30.13 in 10.0 mi Calm Calm - N/A   Mostly Cloudy
9:20 PM 41.0 °F 39.0 °F - N/A% 30.14 in 10.0 mi SSW 3.5 mph - N/A   Mostly Cloudy
9:40 PM 41.0 °F - - N/A% 30.14 in 10.0 mi Calm Calm - N/A   Overcast
10:00 PM 41.0 °F 39.0 °F - N/A% 30.14 in 10.0 mi South 3.5 mph - N/A   Mostly Cloudy
10:20 PM 39.2 °F 37.0 °F - N/A% 30.15 in 10.0 mi SSE 3.5 mph - N/A   Partly Cloudy
10:40 PM 39.2 °F - - N/A% 30.15 in 10.0 mi Calm Calm - N/A   Mostly Cloudy
11:00 PM 39.2 °F 35.9 °F - N/A% 30.15 in 10.0 mi ESE 4.6 mph - N/A   Mostly Cloudy
11:20 PM 37.4 °F - - N/A% 30.16 in 10.0 mi Calm Calm - N/A   Clear
11:40 PM 37.4 °F - - N/A% 30.15 in 10.0 mi Calm Calm - N/A   Clear